Content
SEND FEEDBACK

Daily
Averages
Monthly
Summary
United States of America

ST. LOUIS, MISSOURI


Home > North America > United States > Missouri
Elevation: 535 feet     Latitude: 38 45N     Longitude: 090 22W

WEATHER
 
SELECT A DAY
Number of Records: 199,721;   Date Range: 1/1/95 - 10/23/14
 
SHARE

PRINT THIS DATA

[ ← Previous Day ]
WEATHER ALMANAC - MAY 9, 2013
[ Next Day → ]
[ °C ]   °F
Weather ElementAverageHighLow
Temperature68.3 °F75.9 °F (5:54 pm)63 °F (1:54 am)
Dewpoint59.1 °F62.6 °F (1:46 pm)55.9 °F (2:54 am)
Humidity72.9 %90 % (1:54 am)53 % (6:54 pm)
Barometer29.89 in29.94 in (1:54 am)29.82 in (6:54 pm)
Wind Speed4.6 mph19.6 mph (3:54 pm)
Wind Gust20.7 mph (4:54 pm)
Weather ElementAverage
Visibility10 mi
Wind DirectionESE (115 °)

Weather ElementTotal
Precipitation---
Cooling Degree Days4.5 (Base 65)
Growing Degree Days19.5 (Base 50)
Averaged from 26 records on May 9, 2013
WEATHER CONDITIONS BREAKOUT
WIND DIRECTION BREAKOUT
WEATHER BY HOUR - MAY 9, 2013
[ °C ]   °F
Local TimeTemperatureDewpointHumidityBarometerVisibilityWind DirectionWind SpeedGust SpeedPrecipitationEventsConditions
1:54 AM63.0 °F60.1 °F90 %29.94 in10.0 miCalmPartly Cloudy
2:54 AM64.9 °F55.9 °F73 %29.93 in10.0 miCalmMostly Cloudy
3:54 AM63.0 °F57.9 °F84 %29.92 in10.0 miCalmOvercast
4:54 AM64.0 °F57.0 °F78 %29.91 in10.0 miCalmOvercast
5:54 AM64.9 °F57.0 °F75 %29.91 in10.0 miSouth (190°)4.6 mphMostly Cloudy
6:54 AM66.9 °F57.0 °F70 %29.91 in10.0 miVariable4.6 mphClear
7:54 AM69.1 °F57.9 °F68 %29.90 in10.0 miSSE (160°)3.5 mphMostly Cloudy
8:54 AM70.0 °F60.1 °F71 %29.91 in10.0 miNorth (350°)3.5 mphMostly Cloudy
9:05 AM69.8 °F59.0 °F68 %29.92 in10.0 miCalmThunderstormMostly Cloudy
9:36 AM69.8 °F60.8 °F73 %29.92 in10.0 miWest (270°)9.2 mphOvercast
9:54 AM68.0 °F60.1 °F76 %29.92 in10.0 miWSW (240°)6.9 mph0.00 inRainLight Rain
10:54 AM69.1 °F60.1 °F73 %29.92 in10.0 miCalm0.00 inRainLight Rain
11:54 AM66.2 °F60.8 °F83 %29.90 in10.0 miESE (120°)3.5 mphOvercast
12:54 PM69.1 °F62.1 °F78 %29.88 in10.0 miCalm0.00 inMostly Cloudy
1:46 PM71.6 °F62.6 °F73 %29.88 in10.0 miSSW (200°)8.1 mphOvercast
1:54 PM71.1 °F62.1 °F73 %29.87 in10.0 miSW (220°)9.2 mphOvercast
2:54 PM71.1 °F60.1 °F68 %29.86 in10.0 miWSW (240°)11.5 mphOvercast
3:54 PM73.9 °F60.1 °F62 %29.85 in10.0 miWSW (250°)19.6 mphScattered Clouds
4:54 PM75.0 °F59.0 °F57 %29.84 in10.0 miWSW (240°)15.0 mph20.7 mphScattered Clouds
5:54 PM75.9 °F57.9 °F54 %29.84 in10.0 miWest (260°)9.2 mph20.7 mphScattered Clouds
6:54 PM75.0 °F57.0 °F53 %29.82 in10.0 miWSW (250°)11.5 mphMostly Cloudy
7:54 PM70.0 °F57.0 °F63 %29.83 in10.0 miCalmMostly Cloudy
8:54 PM64.9 °F59.0 °F81 %29.86 in10.0 miCalmMostly Cloudy
9:54 PM63.0 °F57.9 °F84 %29.88 in10.0 miCalmClear
10:54 PM63.0 °F57.9 °F84 %29.88 in10.0 miCalmClear
11:54 PM64.0 °F59.0 °F84 %29.88 in10.0 miCalmPartly Cloudy
Hourly data recorded from KSUS, located miles away from St. Louis, Missouri







STORIES FROM OUR PARTNERS